Regional Weather Roundup
Issued by NWS

Home | Current Version | Previous Version | Text Only | Print | Product List | Glossary On
Versions: 1 2 3 4 5 6 7 8 9 10 11 12 13 14 15 16 17 18 19 20 21 22 23 24 25 26 27 28 29 30 31 32 33 34 35 36 37 38 39 40 41 42 43 44 45 46 47 48 49 50
000
ASUS45 KSLC 010710
RWRUT

UTAH REGIONAL WEATHER ROUNDUP
NATIONAL WEATHER SERVICE SALT LAKE CITY UT
100 AM MDT WED JUL 01 2015

UTZ001>011-023>025-010800-

NORTHERN UTAH

CITY           SKY/WX    TMP DP  RH WIND       PRES   REMARKS
BRIGHAM CITY   CLOUDY    87  36  16 N10G22    30.08F
HILL AFB       LGT RAIN  79  56  44 S7        30.16R
LOGAN          CLEAR     81  49  32 NE6       30.09F
OGDEN          CLOUDY    80  52  37 W7        30.14R
PROVO AIRPORT  CLOUDY    77  54  44 E7        30.15F
SALT LAKE CITY CLOUDY    80  56  43 W6        30.11R
VERNAL         CLOUDY    68  52  56 W5        30.12R
WENDOVER       CLOUDY    79  54  41 NW16G23   30.14S
HEBER CITY     CLOUDY    77  46  33 CALM      30.22R
WEST JORDAN    CLEAR     79  52  38 N8        30.17R

$$

UTZ012>022-026-027-010800-

SOUTHERN/CENTRAL UTAH

CITY           SKY/WX    TMP DP  RH WIND       PRES   REMARKS
BLANDING       CLOUDY    77  42  28 NE8       30.18S
BRYCE CANYON   MOCLDY    56  48  74 NW5       30.34F
CEDAR CITY     PTCLDY    69  45  41 NW6       30.15S
DELTA          CLOUDY    76  54  45 N9        30.10S
HANKSVILLE     MOCLDY    82  43  24 CALM      30.04S
MILFORD        PTCLDY    78  46  32 N15       30.12R
MOAB/CYNLANDS  CLEAR     78  41  26 E5        29.99F
PRICE          CLOUDY    80  44  27 NW24G31   30.18R
ST GEORGE      CLOUDY    93  46  20 N5        29.88S
KANAB          PTCLDY    79  46  31 NW15      30.12S

$$

REGIONAL REPORTS     COLORADO/ARIZONA

CITY           SKY/WX    TMP DP  RH WIND       PRES   REMARKS
CRAIG, CO      MOCLDY    58  48  69 CALM      30.21R
GRAND JUNCTION PTCLDY    75  41  29 E3        30.04S
RIFLE          PTCLDY    71  42  35 E3        30.13R
MONTROSE       PTCLDY    74  46  36 SE10      30.16R
CORTEZ         CLEAR     67  49  52 E7        30.12R
PAGE, AZ       PTCLDY    89  42  19 W3        29.98S
GRAND CANYON   MOCLDY    60  58  92 CALM      30.22F
KINGMAN        PTCLDY    87  55  33 S10       29.95S
FLAGSTAFF      PTCLDY    65  55  70 N3        30.26S

$$

REGIONAL REPORTS    NEVADA/IDAHO/WYOMING

CITY           SKY/WX    TMP DP  RH WIND       PRES   REMARKS
LAS VEGAS, NV  CLOUDY   100  55  22 W8        29.74S HX  98
ELY            CLOUDY    63  52  67 SE5       30.28S
ELKO           CLOUDY    74  54  49 NE15      30.19S
POCATELLO, ID  CLEAR     72  66  81 NW5       30.08R
BURLEY         CLOUDY    77  54  44 S21       30.03S
EVANSTON, WY   MOCLDY    71  44  37 W17G24    30.31S
ROCK SPRINGS   PTCLDY    63  53  70 NE3       30.25R
KEMMERER       MOCLDY    68  46  45 W8        30.31S

$$


USA.gov is the U.S. government's official web portal to all federal, state and local government web resources and services.